Regional Weather Roundup
Issued by NWS

Home | Current Version | Previous Version | Text Only | Print | Product List | Glossary Off
Versions: 1 2 3 4 5 6 7 8 9 10 11 12 13 14 15 16 17 18 19 20 21 22 23 24 25 26 27 28 29 30 31 32 33 34 35 36 37 38 39 40 41 42 43 44 45 46 47 48 49 50

091
ASUS43 KLMK 231710
RWRKY
KENTUCKY REGIONAL WEATHER ROUNDUP
NATIONAL WEATHER SERVICE LOUISVILLE KY
100 PM EDT MON OCT 23 2017

NOTE "FAIR" INDICATES FEW OR NO CLOUDS BELOW 12,000 FEET
WITH NO SIGNIFICANT WEATHER AND/OR OBSTRUCTIONS TO VISIBILITY.

KYZ001>023-026-027-061>063-070>075-231800-
WESTERN AND SOUTH CENTRAL KENTUCKY

CITY           SKY/WX    TMP DP  RH WIND       PRES   REMARKS
PADUCAH        CLOUDY    57  47  69 NW13G23   29.91R
HENDERSON      CLOUDY    54  52  93 W13       29.82F FOG
OWENSBORO      CLOUDY    56  53  90 W15       29.80F FOG
HOPKINSVILLE   DRIZZLE   55  54  94 W14       29.87S
BOWLING GREEN  CLOUDY    61  57  87 W9        29.81F
GLASGOW        DRIZZLE  N/A N/A N/A W14       29.82F
$$

KYZ024-025-028>034-038-045-046-053-231800-
NORTH CENTRAL KENTUCKY

CITY           SKY/WX    TMP DP  RH WIND       PRES   REMARKS
LOUISVILLE/SDF CLOUDY    64  61  90 SW8       29.75F
LOUISVILLE/LOU MOSUNNY   64  62  93 SW13      29.77R
FORT KNOX      CLOUDY    57  55  94 SW12G18   29.77R
$$

KYZ035>037-039>044-047>052-055>060-089>105-231800-
NORTHEAST KENTUCKY

CITY           SKY/WX    TMP DP  RH WIND       PRES   REMARKS
LEXINGTON      LGT RAIN  61  58  90 E14       29.76F
COVINGTON      LGT RAIN  63  62  97 S7        29.74F
FRANKFORT      LGT RAIN  61  58  90 E12       29.72F
$$

KYZ054-064>069-076>088-106>120-231800-
SOUTHEAST KENTUCKY

CITY           SKY/WX    TMP DP  RH WIND       PRES   REMARKS
JACKSON        HVY RAIN  59  58  96 CALM      29.86F FOG
LONDON         RAIN      61  59  93 CALM      29.85S FOG
SOMERSET       LGT RAIN  57  57 100 E14       29.76F
MIDDLESBORO    RAIN      60  60 100 CALM      29.87S
MONTICELLO     CLOUDY    60  59  96 W9        29.83F
$$





USA.gov is the U.S. government's official web portal to all federal, state and local government web resources and services.